Location: *
(57.8420°S, 159.8600°W)
Time: 04:31:57
(UTC+00:00)

Meteor 2-8 Rocket - Pass Details

Date: 18 May 2021
Orbit: 936 x 958 km, 82.5° (Epoch: 20 June)

Event Time Altitude Azimuth Distance (km) Brightness Sun altitude
Rises 03:26:12 0° 194° (SSW) 3,685 7.4 -7.7°
Reaches altitude 10° 03:28:44 10° 192° (SSW) 2,733 6.7 -8.0°
Maximum altitude 03:35:02 81° 104° (ESE) 989 4.5 -8.8°
Drops below altitude 10° 03:41:15 10° 15° (NNE) 2,699 6.9 -9.5°
Sets 03:43:44 0° 14° (NNE) 3,635 7.6 -9.8°
